TimeCDT,TemperatureF,Dew PointF,Humidity,Sea Level PressureIn,VisibilityMPH,Wind Direction,Wind SpeedMPH,Gust SpeedMPH,PrecipitationIn,Events,Conditions,WindDirDegrees,DateUTC
12:03 AM,68.0,60.8,78,30.04,8.0,ESE,3.5,-,N/A,,Clear,120,2013-06-21 05:03:00
12:08 AM,68.0,60.8,78,30.04,10.0,SE,3.5,-,N/A,,Partly Cloudy,130,2013-06-21 05:08:00
12:58 AM,69.6,61.9,76,30.03,10.0,ESE,4.6,-,N/A,,Clear,110,2013-06-21 05:58:00
1:58 AM,70.9,62.8,75,30.00,10.0,ESE,6.9,-,N/A,,Overcast,110,2013-06-21 06:58:00
2:56 AM,69.8,64.4,83,30.02,10.0,NE,1.2,-,N/A,Thunderstorm,Light Drizzle,50,2013-06-21 07:56:00
2:58 AM,69.8,64.4,83,30.02,10.0,Calm,Calm,-,N/A,Thunderstorm,Light Drizzle,0,2013-06-21 07:58:00
3:04 AM,69.8,64.4,83,30.02,10.0,NNW,1.2,-,N/A,Rain-Thunderstorm,Light Thunderstorms and Rain,330,2013-06-21 08:04:00
3:19 AM,68.0,66.2,94,30.01,9.0,East,5.8,-,N/A,Rain-Thunderstorm,Light Thunderstorms and Rain,100,2013-06-21 08:19:00
3:20 AM,68.0,66.2,94,30.01,9.0,ESE,4.6,-,N/A,Rain-Thunderstorm,Light Rain,110,2013-06-21 08:20:00
3:30 AM,68.0,66.2,94,30.00,4.0,East,10.4,-,N/A,Rain-Thunderstorm,Light Rain,80,2013-06-21 08:30:00
3:31 AM,68.0,66.2,94,30.00,4.0,East,9.2,-,N/A,Rain-Thunderstorm,Light Thunderstorms and Rain,80,2013-06-21 08:31:00
3:41 AM,68.0,66.2,94,30.01,9.0,ENE,6.9,-,N/A,Rain-Thunderstorm,Light Thunderstorms and Rain,70,2013-06-21 08:41:00
3:46 AM,68.0,66.2,94,30.00,9.0,East,8.1,-,N/A,Rain-Thunderstorm,Light Thunderstorms and Rain,80,2013-06-21 08:46:00
3:48 AM,68.0,66.2,94,30.00,10.0,East,9.2,-,N/A,Thunderstorm,Thunderstorm,80,2013-06-21 08:48:00
3:58 AM,67.5,65.8,95,29.99,10.0,East,9.2,-,0.11,Thunderstorm,Thunderstorm,90,2013-06-21 08:58:00
4:07 AM,68.0,66.2,94,29.99,10.0,East,10.4,-,N/A,Thunderstorm,Mostly Cloudy,90,2013-06-21 09:07:00
4:58 AM,66.6,65.5,96,29.98,10.0,East,10.4,-,N/A,,Mostly Cloudy,100,2013-06-21 09:58:00
5:58 AM,66.7,64.6,93,29.92,10.0,SE,9.2,-,N/A,,Scattered Clouds,130,2013-06-21 10:58:00
6:35 AM,68.0,64.4,88,29.93,10.0,SSE,5.8,-,N/A,Rain-Thunderstorm,Light Rain,150,2013-06-21 11:35:00
6:43 AM,68.0,66.2,94,29.96,2.5,South,8.1,-,N/A,Rain-Thunderstorm,Heavy Thunderstorms and Rain,170,2013-06-21 11:43:00
6:47 AM,66.2,66.2,100,29.95,1.5,SE,8.1,-,N/A,Rain-Thunderstorm,Heavy Thunderstorms and Rain,140,2013-06-21 11:47:00
6:48 AM,66.2,66.2,100,29.97,1.5,SSE,6.9,-,N/A,Rain-Thunderstorm,Heavy Thunderstorms and Rain,150,2013-06-21 11:48:00
6:58 AM,68.0,66.2,94,30.03,2.0,West,15.0,20.7,N/A,Rain-Thunderstorm,Light Thunderstorms and Rain,260,2013-06-21 11:58:00
7:16 AM,66.2,64.4,94,30.06,2.0,NW,11.5,28.8,N/A,Rain-Thunderstorm,Heavy Thunderstorms and Rain,310,2013-06-21 12:16:00
7:58 AM,64.4,64.4,100,29.99,4.0,NW,11.5,-,N/A,Rain-Thunderstorm,Thunderstorms and Rain,320,2013-06-21 12:58:00
8:58 AM,64.4,64.4,100,29.99,6.0,SE,9.2,-,N/A,Rain-Thunderstorm,Light Thunderstorms and Rain,140,2013-06-21 13:58:00
9:16 AM,64.4,64.4,100,29.94,8.0,SE,13.8,-,N/A,,Overcast,140,2013-06-21 14:16:00
9:58 AM,64.4,64.4,100,29.89,10.0,South,17.3,24.2,N/A,,Mostly Cloudy,170,2013-06-21 14:58:00
10:58 AM,66.2,62.6,88,29.90,10.0,WSW,5.8,-,N/A,,Mostly Cloudy,240,2013-06-21 15:58:00
11:58 AM,68.0,60.8,78,29.91,10.0,WSW,11.5,-,N/A,,Mostly Cloudy,250,2013-06-21 16:58:00
12:58 PM,71.6,64.4,78,29.94,10.0,West,12.7,-,N/A,,Overcast,280,2013-06-21 17:58:00
1:58 PM,75.2,64.4,69,29.94,10.0,West,12.7,-,N/A,,Overcast,270,2013-06-21 18:58:00
2:58 PM,75.2,66.2,73,29.95,10.0,West,10.4,-,N/A,,Overcast,280,2013-06-21 19:58:00
3:58 PM,75.2,66.2,73,29.96,10.0,West,3.5,-,N/A,,Overcast,270,2013-06-21 20:58:00
4:58 PM,75.6,67.1,75,29.96,10.0,NW,2.3,-,N/A,,Mostly Cloudy,310,2013-06-21 21:58:00
5:58 PM,77.0,66.2,69,29.98,10.0,Calm,Calm,-,N/A,,Mostly Cloudy,0,2013-06-21 22:58:00
6:58 PM,75.2,68.0,78,29.99,10.0,NNE,2.3,-,N/A,,Overcast,30,2013-06-21 23:58:00
7:58 PM,74.5,67.5,79,30.00,10.0,SE,5.8,-,N/A,,Scattered Clouds,140,2013-06-22 00:58:00
8:58 PM,73.8,66.9,79,30.02,10.0,SE,2.3,-,N/A,,Overcast,130,2013-06-22 01:58:00
9:58 PM,72.0,67.3,85,30.02,10.0,East,2.3,-,N/A,,Scattered Clouds,90,2013-06-22 02:58:00
10:58 PM,68.5,67.8,98,30.02,10.0,ENE,3.5,-,N/A,,Partly Cloudy,60,2013-06-22 03:58:00
11:57 PM,68.0,66.2,94,30.02,10.0,North,13.8,26.5,N/A,,Scattered Clouds,360,2013-06-22 04:57:00
11:58 PM,66.6,66.4,99,30.01,10.0,NNE,11.5,26.5,N/A,,Scattered Clouds,20,2013-06-22 04:58:00